Flag for Canada Weather past 2 weeks in Fort St. John, British Columbia, Canada

Now
57 °F

Partly sunny.


Feels Like: 54 °F
Forecast: 46 / 63 °F
Wind: 15 mph from Southwest

Location: Fort St John

Current Time: Apr 27, 2015 at 6:03:55 PM

Latest Report: Apr 27, 2015 at 5:00 PM


Visibility: 15 mi

Pressure: 29.98 "Hg

Humidity: 41%

Dew point: 34 °F

Location of Fort St. JohnLocation

Historic Weather in Fort St. John — Graph

°F

Fort St. John temperature yesterday

Maximum temperature yesterday: 55 °F (at 5:00 PM)
Minimum temperature yesterday: 27 °F (at 5:00 AM)
Average temperature yesterday: 42 °F

Past Weeks' High & Low Weather Summary

 TemperatureHumidityPressure
High68 °F (Apr 21, 3:00 PM)100% (Apr 22, 3:00 AM)30.44 "Hg (Apr 22, 3:00 AM)
Low25 °F (Apr 13, 6:00 AM)19% (Apr 13, 2:00 PM)29.57 "Hg (Apr 13, 11:00 PM)
Average42 °F59%29.97 "Hg
* Reported Apr 12 4:00 PM — Apr 27 4:00 PM, Fort St. John, Weather by CustomWeather, © 2015

Note: Actual official high and low records may vary slightly from our data, if they occured in-between our weather recording intervals... More about our weather records

Advertising

Fort St. John weather history for previous 24 hours

 ConditionsComfort  
Time TempWeatherWind HumidityBarometerVisibility
4:00 PM
Mon, Apr 27
59 °FPartly sunny.13 mph34%29.98 "Hg15 mi
3:00 PM57 °FPartly sunny.15 mph33%30.00 "Hg15 mi
2:00 PM59 °FMostly cloudy.17 mph31%30.01 "Hg15 mi
1:00 PM55 °FMostly cloudy.15 mph36%30.01 "Hg15 mi
12:00 PM57 °FMostly cloudy.24 mph33%30.01 "Hg15 mi
11:00 AM55 °FOvercast.20 mph38%30.01 "Hg15 mi
10:00 AM54 °FBroken clouds.23 mph41%30.01 "Hg15 mi
9:00 AM48 °FOvercast.12 mph54%30.02 "Hg15 mi
8:00 AM46 °FOvercast.6 mph57%30.03 "Hg15 mi
7:00 AM43 °FOvercast.10 mph66%30.01 "Hg15 mi
6:00 AM41 °FPassing clouds.13 mph76%29.99 "Hg15 mi
5:00 AM41 °FPartly cloudy.7 mph70%29.99 "Hg15 mi
4:00 AM43 °FPassing clouds.12 mph66%29.97 "Hg15 mi
3:00 AM45 °FPassing clouds.10 mph61%29.96 "Hg15 mi
2:00 AM43 °FPassing clouds.12 mph66%29.96 "Hg15 mi
1:00 AM46 °FPartly cloudy.14 mph53%29.94 "Hg15 mi
12:00 AM46 °FPartly cloudy.12 mph50%29.94 "Hg15 mi
11:00 PM
Sun, Apr 26
48 °FPassing clouds.10 mph50%29.93 "Hg15 mi
10:00 PM48 °FPassing clouds.8 mph50%29.94 "Hg15 mi
9:00 PM46 °FPartly sunny.8 mph53%29.95 "Hg15 mi
8:00 PM50 °FBroken clouds.7 mph47%29.96 "Hg15 mi
7:00 PM52 °FScattered clouds.10 mph41%29.97 "Hg15 mi
6:00 PM55 °FBroken clouds.10 mph36%29.99 "Hg15 mi
Weather by CustomWeather, © 2015

See weather overviewHow to use our weather pages